Temperature
17 16 15 15 15 15 15 16 16 15 14 14 14 13 13 12 12 12 12 12 12 12 12 11 11 11 11 10 10 10 9 9 8 8 8 9 9 9 9 10 9 9 9
16 15 14 14 14 14 14 14 14 14 13 13 13 13 13 12 12 12 12 12 12 11 11 11 11 10 10 9 9 8 8 8 7 6 6 6 6 8 7 7 7 7 7
15 15 14 14 14 14 14 14 14 14 14 13 13 13 12 12 12 12 12 11 11 11 11 10 10 10 9 8 8 7 7 6 6 6 5 4 4 4 5 5 5 5 6
15 14 13 13 14 14 14 14 14 13 13 13 13 13 12 12 12 11 11 11 11 10 10 10 9 9 8 7 7 6 6 5 5 5 5 4 3 3 3 3 4 3 3
15 13 13 13 13 13 13 13 13 13 13 12 12 12 12 12 11 10 10 10 10 10 10 9 9 8 7 6 6 6 5 5 4 4 4 4 3 2 2 1 1 1 2
14 13 12 12 12 13 13 13 13 12 12 12 12 12 11 11 10 10 10 9 9 9 9 8 8 7 6 6 5 5 5 4 4 3 3 2 1 1 0 0 0 0 0
13 12 11 11 12 12 12 12 12 12 12 12 11 11 11 10 10 9 9 9 9 8 8 7 6 6 5 5 4 4 4 4 3 2 1 1 0 -0 -0 -1 -1 -1 -1
12 11 11 11 11 12 12 12 12 12 11 11 11 10 10 9 9 9 9 8 8 7 7 6 5 5 4 4 4 3 3 2 2 1 0 -0 -0 -1 -1 -1 -1 -2 -2
12 11 11 10 11 11 11 11 11 11 11 10 10 9 9 9 8 8 8 7 7 6 5 5 4 4 4 3 3 2 2 1 0 -0 -1 -1 -1 -2 -2 -2 -2 -2 -3
12 11 11 10 10 10 10 11 11 11 10 10 9 9 8 8 8 7 7 6 6 5 4 4 4 3 3 3 2 1 1 -0 -1 -1 -2 -2 -2 -2 -2 -3 -3 -3 -3
12 11 10 10 10 10 10 10 10 10 9 9 8 8 7 7 7 6 6 5 4 3 3 3 3 3 2 2 1 0 -1 -2 -2 -2 -3 -3 -3 -3 -3 -3 -4 -4 -4
12 11 10 10 9 9 9 9 9 9 8 8 7 7 7 6 6 5 5 4 3 3 2 2 2 2 1 1 -0 -1 -2 -3 -3 -3 -4 -4 -4 -4 -4 -4 -4 -5 -5
12 11 10 9 9 9 9 8 8 8 7 7 6 6 6 5 5 4 3 3 2 2 2 2 1 1 0 -1 -2 -3 -3 -4 -4 -4 -5 -5 -5 -5 -5 -5 -5 -5 -6
12 11 10 9 8 8 8 7 7 7 6 6 6 5 5 4 4 3 2 2 2 2 1 1 1 -0 -1 -2 -3 -4 -4 -4 -5 -5 -6 -6 -6 -6 -6 -6 -6 -6 -6
12 10 9 8 8 7 7 7 6 6 6 5 5 5 4 3 3 2 2 1 1 1 1 0 -1 -1 -2 -3 -4 -4 -5 -6 -6 -6 -6 -7 -7 -6 -6 -6 -6 -6 -6
11 10 9 8 8 7 6 6 6 5 5 5 4 4 3 3 2 1 1 1 1 0 -0 -1 -2 -2 -3 -4 -5 -5 -6 -6 -6 -7 -7 -7 -7 -7 -7 -7 -7 -7 -7
11 10 9 8 7 6 6 5 5 5 4 4 4 3 2 2 1 1 0 0 -0 -1 -1 -2 -2 -3 -4 -5 -5 -6 -6 -6 -7 -7 -8 -8 -8 -7 -7 -7 -7 -7 -7
11 10 9 8 7 6 5 5 4 4 4 3 3 2 2 1 1 0 0 -0 -1 -1 -2 -2 -3 -4 -5 -5 -6 -6 -6 -7 -7 -8 -8 -8 -8 -8 -8 -8 -7 -8 -8
10 9 8 7 6 5 4 4 4 3 3 3 2 1 1 0 0 -0 -0 -1 -1 -2 -2 -3 -4 -5 -5 -6 -6 -6 -7 -7 -8 -8 -8 -8 -8 -8 -8 -8 -8 -8 -8
9 8 7 6 5 4 4 3 3 3 2 2 1 1 0 -0 -0 -1 -1 -1 -2 -3 -3 -4 -5 -6 -6 -6 -7 -7 -7 -8 -8 -8 -8 -8 -8 -8 -8 -8 -8 -9 -9
8 7 6 5 4 4 3 3 3 2 2 1 1 0 -0 -0 -1 -1 -2 -2 -3 -4 -4 -5 -5 -6 -7 -7 -7 -8 -8 -8 -8 -9 -9 -9 -9 -9 -8 -8 -9 -9 -9
6 6 5 4 3 3 3 3 2 1 1 0 0 -0 -0 -1 -1 -2 -2 -3 -4 -4 -5 -6 -6 -7 -7 -8 -8 -8 -8 -8 -9 -9 -9 -9 -9 -9 -9 -9 -10 -10 -10
5 5 4 4 3 2 2 2 1 1 0 0 -0 -1 -1 -1 -2 -3 -3 -4 -5 -5 -6 -6 -7 -8 -8 -9 -9 -9 -9 -9 -9 -9 -9 -9 -9 -9 -10 -10 -10 -10 -11
5 4 4 3 3 2 1 1 1 0 0 -0 -1 -1 -1 -2 -2 -3 -4 -5 -6 -6 -7 -7 -8 -8 -9 -9 -9 -9 -9 -9 -10 -10 -10 -10 -10 -11 -11 -11 -11 -11 -12
4 3 3 2 2 1 1 0 0 -0 -0 -1 -1 -2 -2 -3 -3 -4 -5 -5 -6 -7 -8 -8 -8 -9 -9 -9 -9 -9 -9 -10 -10 -9 -10 -11 -11 -12 -12 -12 -12 -12 -12
3 3 2 2 1 1 0 -0 -0 -0 -1 -1 -2 -2 -3 -3 -4 -5 -5 -5 -7 -8 -8 -8 -9 -9 -9 -9 -9 -9 -10 -10 -10 -10 -11 -12 -12 -12 -12 -12 -12 -12 -12
Wind_Speed
10 8 7 6 6 7 8 9 10 10 9 9 9 8 7 7 7 6 10 12 12 12 9 7 7 7 6 7 8 6 8 6 7 6 7 7 8 5 9 12 11 11 10
10 8 8 8 8 8 8 9 10 10 10 9 8 8 8 7 6 5 7 11 12 11 9 8 7 7 6 8 7 6 5 5 7 5 6 5 6 5 12 10 8 10 9
13 10 9 9 8 8 9 10 11 12 12 11 9 9 7 6 5 6 5 8 11 11 9 7 6 7 6 6 6 7 7 6 6 6 4 4 5 9 6 7 10 9 9
14 12 10 9 9 8 9 10 11 11 10 9 8 9 7 6 5 4 5 7 9 9 9 7 6 6 6 6 6 7 6 6 6 5 4 5 7 6 7 6 6 11 12
15 13 11 10 9 8 8 9 10 10 10 10 10 9 8 6 5 5 6 6 6 7 8 7 5 6 5 6 6 6 6 5 5 5 6 7 7 7 10 13 9 8 8
15 13 10 10 9 8 9 9 11 11 10 11 10 9 9 8 8 7 6 5 5 5 6 6 5 5 4 5 5 5 7 6 6 6 6 7 6 8 9 15 16 13 8
16 14 12 10 9 9 9 9 10 11 10 10 10 10 10 9 8 6 6 5 4 4 6 6 5 5 5 5 5 5 7 7 8 7 6 6 7 8 9 13 16 17 12
14 13 12 11 10 10 10 10 10 10 10 10 9 9 9 6 5 7 6 5 4 3 5 6 6 6 5 7 6 6 7 8 8 9 9 7 7 8 8 10 14 18 17
15 14 12 11 11 10 10 10 10 10 9 9 9 8 8 7 6 7 6 4 4 4 6 6 6 7 7 7 7 6 8 8 8 8 9 8 8 8 8 8 8 12 21
15 14 13 12 10 9 10 10 10 10 9 9 7 7 7 6 6 6 6 5 5 5 6 6 7 7 7 7 7 7 8 9 9 8 10 10 9 8 7 8 8 8 13
16 14 13 12 11 11 10 10 10 9 9 8 8 8 6 6 6 6 5 5 5 6 6 6 7 8 8 8 8 8 10 10 10 10 12 13 12 10 8 8 7 8 9
14 13 13 13 11 11 10 10 9 9 8 8 8 7 6 5 6 5 5 5 6 6 6 7 7 8 9 9 9 10 11 9 11 13 14 15 14 13 10 9 9 8 9
14 13 13 12 11 11 10 10 9 9 8 8 7 7 6 6 5 5 6 6 6 6 7 7 7 8 9 9 9 10 8 9 12 14 15 16 15 15 11 10 9 9 13
14 13 12 11 11 10 10 10 9 9 8 8 7 7 5 5 4 5 5 6 6 7 7 7 8 9 9 10 10 8 9 10 11 12 15 16 16 15 13 13 11 12 13
14 13 13 11 11 10 10 10 9 9 8 7 7 6 4 4 4 4 5 6 7 8 8 8 8 9 9 10 12 11 12 10 11 13 15 16 21 24 20 18 14 14 14
13 13 12 12 11 11 10 11 9 8 8 7 6 5 3 3 3 4 5 7 7 8 8 8 9 10 11 20 24 19 10 9 12 15 15 16 17 21 27 30 29 26 20
11 12 11 11 11 11 11 10 9 8 7 7 5 4 3 3 4 5 6 7 7 7 8 9 9 9 13 23 24 24 15 10 11 14 15 17 18 23 15 23 28 24 27
11 11 10 11 11 11 11 10 9 8 7 6 4 3 2 3 4 6 7 7 7 7 8 9 10 10 15 23 24 25 13 9 10 12 14 16 15 18 22 20 18 17 17
11 10 11 12 11 12 11 11 9 8 6 5 3 2 2 4 5 6 7 7 7 8 8 9 10 11 13 21 24 24 10 9 11 13 15 17 17 27 31 23 21 21 17
12 12 13 13 12 11 10 10 8 7 6 4 3 2 2 4 6 6 7 7 7 8 9 10 10 10 11 20 24 24 9 11 12 13 14 21 25 30 33 23 21 20 17
12 13 13 11 10 10 9 9 8 6 6 4 1 2 3 4 6 6 6 7 8 9 9 10 9 9 13 19 23 25 13 12 14 15 14 15 29 33 35 30 17 22 24
11 11 11 10 9 9 9 9 7 6 5 2 1 3 4 5 6 6 7 7 8 9 9 9 9 7 10 16 21 26 24 23 17 16 15 17 32 34 33 24 25 31 26
10 10 11 10 8 7 7 8 6 6 3 1 2 4 5 5 6 6 7 7 7 7 7 8 9 9 8 12 24 25 27 29 19 16 25 30 32 29 19 24 29 24 14
9 10 10 10 8 7 7 7 7 4 2 2 3 4 5 6 6 6 6 6 7 7 8 9 10 10 9 8 9 11 15 21 18 16 21 26 25 21 22 21 17 13 14
7 8 9 9 8 7 7 6 5 4 3 3 4 5 5 6 6 7 6 8 6 9 12 8 8 10 11 15 26 22 16 16 18 20 12 10 12 12 13 13 13 13 14
8 8 8 9 8 7 7 6 5 4 3 3 4 4 5 5 6 7 8 12 14 20 21 20 19 15 20 27 28 29 30 30 29 20 12 13 13 14 15 16 16 15 15
Wind_Direction
116 125 133 119 94 84 95 104 107 106 102 103 101 96 90 79 69 63 63 59 53 49 44 32 29 21 14 19 12 2 348 343 338 329 318 294 299 331 360 344 334 329 334
126 131 126 110 100 94 91 92 93 93 93 96 96 100 99 92 86 71 61 61 54 47 46 36 28 20 15 20 7 6 354 341 346 338 329 328 319 358 339 308 317 322 323
139 138 114 97 89 84 85 92 92 95 98 101 104 106 100 98 89 83 76 66 61 48 42 39 29 19 22 17 3 12 0 339 335 352 343 333 309 316 277 332 313 308 325
138 133 123 110 98 90 87 92 98 103 110 114 112 111 106 104 103 103 100 91 75 58 36 38 31 24 27 20 360 4 347 345 333 332 337 306 300 304 303 299 302 315 309
137 132 127 119 104 93 88 87 87 83 82 82 87 95 97 100 92 80 69 82 79 66 35 30 26 29 28 9 352 351 344 339 330 323 314 309 304 292 302 302 296 293 291
132 126 121 115 107 98 91 90 88 81 77 79 79 85 88 82 76 68 56 56 66 58 32 21 16 22 16 351 338 346 334 317 306 301 298 295 295 302 300 300 303 301 294
137 136 137 133 128 120 113 107 102 94 86 82 77 74 77 76 67 62 57 51 43 36 17 13 4 3 354 341 340 339 317 304 298 292 288 286 286 290 293 296 301 301 299
144 146 146 140 135 134 127 116 108 101 93 88 85 77 74 75 69 62 57 54 46 27 6 2 357 354 347 340 335 322 308 306 300 302 299 295 290 287 289 294 302 304 303
151 152 147 141 139 138 127 119 113 107 102 96 91 82 78 75 67 63 54 41 26 15 4 356 353 344 336 332 328 316 309 306 301 298 294 292 286 283 283 287 293 299 303
155 153 148 143 142 133 126 123 117 112 102 92 91 89 76 71 68 62 48 27 12 7 354 351 344 335 329 327 323 315 309 307 304 301 297 295 293 288 284 282 282 282 291
158 153 148 142 135 128 127 122 117 113 110 106 95 85 72 58 61 59 41 18 4 357 348 341 334 328 323 324 320 315 311 306 308 309 307 302 300 296 291 287 285 283 286
152 148 145 139 137 138 135 129 125 116 109 104 98 91 77 56 48 43 28 11 356 343 335 332 328 323 321 317 312 310 308 310 318 314 308 306 306 301 297 292 288 290 292
149 148 146 146 149 148 141 134 124 119 113 106 103 94 75 55 37 26 14 356 340 328 325 325 320 314 310 306 302 300 306 321 314 309 307 307 305 301 297 294 295 295 297
153 152 151 153 152 147 140 131 123 118 111 100 93 83 67 53 29 12 355 337 325 319 316 312 306 303 301 300 298 304 315 307 304 306 304 303 300 299 300 300 291 294 295
157 157 157 154 149 143 136 128 122 116 114 108 100 87 58 40 19 357 336 321 314 312 304 302 301 298 302 304 312 315 310 307 307 304 301 299 301 304 305 303 304 304 301
160 156 154 150 148 143 134 126 120 118 116 112 104 93 53 25 360 328 313 305 302 299 302 302 300 303 312 314 314 314 308 304 306 306 304 302 301 304 309 309 306 304 305
153 153 150 146 142 135 129 126 121 118 113 107 102 91 47 358 330 316 311 305 304 307 308 305 306 306 309 313 314 315 316 305 303 303 306 308 310 312 304 302 306 307 305
140 139 135 130 125 120 118 115 117 116 113 114 116 104 37 335 323 315 310 309 309 309 306 304 304 302 305 313 316 316 314 297 296 300 304 304 305 306 306 306 310 306 301
120 120 119 118 116 116 117 117 118 118 121 120 103 70 12 327 316 310 308 309 309 306 301 299 300 298 304 314 317 316 304 301 300 303 306 307 305 305 311 314 310 307 304
101 109 111 113 114 117 121 123 125 128 124 109 83 22 333 313 304 303 306 304 304 299 301 301 299 301 305 315 320 321 310 311 311 309 308 309 310 311 314 314 311 312 309
102 108 111 113 118 121 122 122 122 119 109 96 56 323 310 306 301 301 298 298 299 300 302 303 304 307 313 322 324 323 323 318 317 316 314 311 312 313 315 317 315 311 316
109 112 113 112 112 116 119 119 117 110 105 103 302 299 306 308 308 302 300 301 302 303 304 309 311 311 318 323 322 323 324 323 319 315 312 311 313 317 320 323 318 319 323
117 116 117 115 109 108 116 119 115 109 102 32 321 320 319 309 305 304 303 303 301 302 309 313 314 315 314 318 320 320 321 321 320 311 312 314 318 323 325 320 321 324 319
121 124 124 123 118 107 99 106 110 106 83 359 336 326 316 310 309 303 299 300 303 305 307 308 309 309 307 305 308 310 316 320 318 310 312 319 322 323 322 321 318 315 312
125 127 131 131 131 128 117 111 109 94 47 358 334 321 317 315 309 302 298 304 293 302 312 306 304 309 312 313 320 324 323 322 317 323 323 322 322 322 319 318 317 317 318
125 124 125 126 129 129 125 118 104 80 36 343 328 324 321 314 308 308 309 310 313 317 319 321 318 317 316 319 324 326 325 325 328 332 328 323 320 319 320 320 320 320 319
Height
1459 1462 1464 1464 1465 1465 1465 1465 1467 1469 1471 1473 1475 1478 1480 1482 1484 1486 1487 1488 1488 1487 1487 1486 1485 1483 1481 1479 1476 1473 1470 1468 1464 1459 1454 1452 1451 1450 1447 1446 1443 1441 1438
1457 1462 1464 1464 1464 1465 1465 1466 1468 1470 1471 1473 1475 1478 1480 1483 1485 1486 1487 1487 1487 1486 1485 1484 1483 1480 1478 1476 1473 1470 1467 1464 1462 1458 1452 1448 1445 1444 1443 1440 1438 1435 1433
1453 1460 1463 1464 1464 1465 1466 1467 1469 1471 1473 1474 1476 1479 1481 1483 1485 1486 1487 1487 1486 1485 1484 1482 1480 1477 1475 1472 1470 1467 1465 1462 1460 1458 1456 1451 1444 1438 1435 1435 1432 1429 1426
1451 1457 1461 1462 1464 1465 1467 1468 1470 1472 1474 1476 1478 1480 1482 1483 1485 1486 1486 1485 1484 1483 1481 1479 1477 1475 1472 1470 1468 1466 1463 1461 1458 1456 1455 1453 1447 1440 1429 1426 1425 1423 1419
1449 1455 1459 1461 1463 1465 1467 1469 1471 1473 1475 1477 1479 1481 1482 1483 1484 1485 1484 1483 1482 1481 1479 1477 1474 1472 1469 1467 1465 1463 1461 1458 1456 1453 1450 1446 1443 1438 1431 1419 1414 1413 1411
1447 1453 1457 1460 1462 1465 1467 1469 1471 1473 1476 1478 1480 1481 1482 1483 1483 1483 1483 1482 1480 1479 1477 1474 1471 1469 1467 1464 1462 1460 1458 1455 1452 1449 1446 1442 1438 1434 1428 1418 1408 1404 1401
1445 1450 1455 1458 1462 1465 1467 1470 1472 1473 1476 1477 1479 1480 1481 1482 1482 1482 1481 1480 1479 1477 1474 1471 1469 1466 1464 1462 1459 1457 1454 1451 1448 1444 1441 1437 1434 1430 1425 1417 1406 1398 1392
1444 1449 1453 1457 1460 1464 1467 1469 1471 1473 1475 1477 1478 1479 1480 1481 1481 1480 1480 1478 1477 1474 1472 1469 1466 1464 1462 1459 1456 1453 1450 1447 1443 1439 1436 1432 1428 1424 1420 1414 1406 1393 1383
1442 1448 1452 1456 1459 1463 1466 1468 1470 1472 1474 1475 1477 1478 1479 1479 1479 1479 1478 1476 1474 1472 1469 1466 1464 1461 1459 1456 1452 1449 1445 1441 1438 1433 1429 1425 1421 1417 1413 1409 1404 1397 1382
1441 1446 1450 1454 1458 1462 1464 1467 1469 1470 1472 1474 1475 1477 1477 1477 1477 1476 1475 1473 1471 1469 1466 1463 1461 1458 1455 1452 1448 1444 1440 1436 1432 1428 1423 1419 1414 1410 1406 1402 1397 1392 1384
1438 1444 1449 1453 1457 1460 1463 1465 1467 1469 1471 1472 1474 1475 1475 1475 1475 1474 1472 1470 1468 1466 1463 1461 1458 1455 1451 1448 1443 1439 1434 1430 1425 1421 1417 1411 1407 1402 1398 1394 1389 1384 1379
1437 1442 1447 1451 1454 1457 1460 1463 1465 1467 1469 1470 1472 1473 1473 1473 1472 1471 1469 1467 1465 1463 1460 1458 1455 1451 1447 1443 1438 1433 1429 1424 1419 1414 1409 1404 1400 1395 1391 1386 1381 1376 1371
1435 1440 1444 1448 1451 1455 1458 1460 1462 1465 1467 1468 1470 1471 1471 1470 1469 1468 1466 1465 1462 1460 1457 1454 1451 1447 1442 1437 1433 1428 1424 1419 1414 1408 1403 1398 1393 1387 1383 1379 1373 1368 1363
1432 1437 1441 1445 1449 1453 1456 1458 1460 1463 1465 1466 1468 1468 1468 1468 1467 1465 1464 1462 1459 1457 1454 1450 1446 1442 1437 1432 1428 1423 1418 1412 1407 1401 1396 1391 1387 1382 1377 1371 1366 1361 1355
1430 1435 1439 1443 1447 1451 1454 1456 1458 1461 1463 1465 1466 1466 1466 1465 1464 1462 1460 1458 1456 1453 1449 1445 1441 1437 1432 1428 1423 1418 1412 1406 1399 1394 1389 1385 1381 1377 1372 1366 1360 1354 1348
1428 1433 1437 1441 1445 1448 1451 1453 1456 1459 1461 1463 1463 1464 1463 1462 1461 1459 1457 1455 1452 1448 1445 1440 1436 1432 1427 1423 1418 1413 1406 1400 1394 1388 1382 1378 1374 1370 1365 1360 1354 1349 1342
1426 1431 1435 1439 1443 1446 1449 1451 1454 1458 1459 1461 1461 1461 1460 1459 1458 1456 1454 1451 1448 1444 1440 1436 1431 1426 1421 1416 1412 1407 1401 1394 1389 1383 1377 1372 1368 1363 1356 1350 1345 1340 1335
1425 1430 1434 1438 1442 1445 1447 1450 1454 1456 1458 1459 1459 1458 1458 1457 1455 1453 1450 1447 1443 1439 1435 1430 1425 1420 1415 1411 1406 1401 1395 1389 1383 1378 1373 1367 1360 1355 1350 1342 1336 1330 1325
1424 1429 1433 1436 1439 1443 1446 1450 1453 1455 1456 1456 1456 1456 1455 1454 1452 1450 1447 1443 1439 1435 1430 1425 1420 1415 1410 1406 1401 1396 1390 1383 1377 1372 1367 1362 1355 1349 1343 1336 1328 1320 1314
1424 1428 1432 1435 1438 1442 1446 1449 1451 1453 1454 1454 1454 1454 1453 1451 1449 1446 1443 1439 1435 1430 1425 1420 1415 1410 1405 1401 1396 1392 1385 1378 1371 1365 1360 1355 1349 1343 1336 1329 1320 1312 1305
1425 1428 1431 1435 1438 1442 1445 1448 1450 1452 1452 1452 1452 1451 1450 1448 1446 1443 1439 1435 1430 1425 1420 1415 1410 1406 1401 1396 1392 1387 1382 1375 1367 1360 1353 1347 1342 1336 1329 1322 1315 1307 1300
1426 1429 1431 1435 1439 1442 1445 1447 1449 1450 1450 1450 1450 1449 1447 1445 1442 1439 1435 1431 1426 1421 1415 1410 1405 1401 1397 1392 1386 1382 1377 1371 1364 1355 1348 1341 1335 1329 1322 1315 1308 1302 1294
1427 1430 1432 1436 1439 1442 1445 1446 1447 1448 1448 1448 1447 1446 1445 1442 1439 1435 1431 1426 1422 1417 1411 1406 1400 1395 1391 1386 1382 1376 1371 1365 1358 1351 1343 1336 1329 1322 1315 1309 1303 1296 1288
1427 1430 1433 1436 1439 1442 1443 1445 1445 1446 1446 1445 1445 1443 1441 1438 1435 1432 1427 1423 1418 1413 1408 1402 1397 1391 1386 1381 1376 1370 1364 1358 1351 1343 1336 1330 1323 1317 1310 1303 1296 1290 1284
1428 1431 1433 1436 1439 1441 1442 1443 1443 1444 1444 1443 1442 1440 1438 1435 1431 1427 1424 1419 1415 1411 1406 1401 1395 1389 1383 1378 1374 1368 1360 1353 1346 1338 1330 1324 1317 1310 1304 1298 1291 1285 1279
1428 1430 1433 1435 1437 1439 1440 1441 1442 1442 1441 1441 1439 1437 1434 1431 1427 1422 1418 1414 1411 1407 1403 1398 1394 1387 1382 1376 1370 1363 1356 1349 1342 1335 1327 1321 1314 1308 1301 1294 1287 1281 1275